Погода в Авиле

Испания     40°39′31″N   4°41′50″W
темп.,
°C
ветер,
м/с
пор.,
м/с
влажн.,
%
обл.,
%
осадки,
мм/ч
давл.,
гПа
погр.,
м
5 марта, пт
пт501:00+5ююв598579 0.0 1017177
04:00+4ююв597841 0.0 1017211
07:00+4ююв357570 0.0 1017101
10:00+7юв4766100 0.0 1017324
13:00+12вюв3554100 0.0 10151249
16:00+13в334997 0.1 10141622
19:00+9юв236795 0.6 101425
22:00+6сз127590 0.1 101825
6 марта, сб
сб601:00+4ю128552 0.1 101922
04:00+4ююв46821 0.0 102097
07:00+4ююв33862 0.0 102136
10:00+8юв23760 0.0 1021300
13:00+11вюв236310 0.4 1019979
16:00+12юв335975 1.4 10171070
19:00+8юв227380 2.3 101728
22:00+7юв347891 0.3 102097
7 марта, вс
вс701:00+5ююв588990 0.3 1020164
04:00+4ю469376 0.0 1020140
07:00+3ю339588 0.0 102074
10:00+6ю238210 0.0 1020270
13:00+11зсз11605 0.3 10181122
16:00+11сз335460 0.3 10141362
19:00+8зсз346252 0.3 101449
22:00+5зсз117435 0.0 101722
8 марта, пн
пн801:00+5юз117341 0.0 101722
04:00+3юз227771 0.0 101625
07:00+1ссз129151 0.0 101763
10:00+4ссв228345 0.0 1017345
13:00+9ссв436140 0.1 10161016
16:00+9с555515 0.1 10151380
19:00+6с466646 0.1 1016378
22:00+2ссв358769 0.1 1020145
9 марта, вт
вт901:000с128863 0.1 102151
04:00−1сз129310 0.0 102222
07:000сз229144 0.0 1023192
10:00+1ссз128299 0.0 1023411
13:00+6ссв336293 0.0 1022809
16:00+8с34508 0.0 10201160
19:00+5с35624 0.0 102193
22:00+1всв12768 0.0 102422